This is the latest recevied weather packets stored in our database for station/object YN1ZSC-13. If no packets are shown the sender has not sent any weather packets the latest 10 day(s).
| Time | Temp. | Humidity | Pressure | Rain* | Wind** | Luminosity | Snow |
|---|---|---|---|---|---|---|---|
| 1778163466 | 26.67° C | 65% | 1013 hPa | 0 mm | - | - | - |
| 1778162865 | 26.11° C | 65% | 1013 hPa | 0 mm | - | - | - |
| 1778162265 | 26.67° C | 65% | 1013 hPa | 0 mm | - | - | - |
| 1778161664 | 27.22° C | 65% | 1013 hPa | 0 mm | - | - | - |
| 1778161063 | 27.78° C | 65% | 1012 hPa | 0 mm | - | - | - |
| 1778160463 | 27.78° C | 65% | 1012 hPa | 0 mm | - | - | - |
| 1778159862 | 28.33° C | 65% | 1012 hPa | 0 mm | - | - | - |
| 1778159262 | 24.44° C | 74% | 1012 hPa | 0 mm | - | - | - |
| 1778158661 | 25° C | 74% | 1012 hPa | 0 mm | - | - | - |
| 1778158061 | 25.56° C | 74% | 1012 hPa | 0 mm | - | - | - |
| 1778157460 | 23.89° C | 74% | 1012 hPa | 0 mm | - | - | - |
| 1778156859 | 23.89° C | 74% | 1011 hPa | 0 mm | - | - | - |
| 1778156259 | 23.89° C | 74% | 1011 hPa | 0 mm | - | - | - |
| 1778155658 | 23.33° C | 74% | 1011 hPa | 0 mm | - | - | - |
| 1778155057 | 23.89° C | 75% | 1011 hPa | 0 mm | - | - | - |
| 1778154457 | 23.33° C | 72% | 1011 hPa | 0 mm | - | - | - |
| 1778153856 | 23.89° C | 72% | 1011 hPa | 0 mm | - | - | - |
| 1778153255 | 24.44° C | 71% | 1011 hPa | 0 mm | - | - | - |
| 1778152655 | 25° C | 71% | 1011 hPa | 0 mm | - | - | - |
| 1778152054 | 25.56° C | 72% | 1011 hPa | 0 mm | - | - | - |
| 1778151454 | 22.78° C | 67% | 1011 hPa | 0 mm | - | - | - |
| 1778150853 | 23.33° C | 67% | 1011 hPa | 0 mm | - | - | - |
| 1778150253 | 23.33° C | 65% | 1011 hPa | 0 mm | - | - | - |
| 1778149652 | 23.89° C | 66% | 1011 hPa | 0 mm | - | - | - |
| 1778149051 | 23.89° C | 63% | 1011 hPa | 0 mm | - | - | - |
* Rain latest hour (hover to see other rain measurements)
** Current wind speed in m/s (hover to see current wind gust speed)